Location: Fairview
(40.8165°N, 122.7667°W)
Time: 22:43:12
(UTC+00:00)

USA 81 - Pass Details

Date: 08 September 2024
Orbit: 784 x 786 km, 85.0° (Epoch: 06 October)

Event Time Altitude Azimuth Distance (km) Brightness Sun altitude
Rises 03:34:13 0° 340° (NNW) 3,284 7.9 -12.2°
Reaches altitude 10° 03:37:07 10° 324° (NW) 2,350 7.4 -12.7°
Maximum altitude 03:40:55 21° 278° (W) 1,725 6.9 -13.4°
Drops below altitude 10° 03:44:42 10° 231° (SW) 2,338 6.9 -14.1°
Sets 03:47:35 0° 216° (SW) 3,261 7.5 -14.6°
